Regional Weather Roundup
Issued by NWS Grand Forks, ND

Home | Current Version | Previous Version | Graphics & Text | Print | Product List | Glossary On
Versions: 1 2 3 4 5 6 7 8 9 10 11 12 13 14 15 16 17 18 19 20 21 22 23 24 25 26 27 28 29 30 31 32 33 34 35 36 37 38 39 40 41 42 43 44 45 46 47 48 49 50
000
ASUS43 KFGF 212210
RWRFGF
PRAIRIE TO PINES  WEATHER ROUNDUP
NATIONAL WEATHER SERVICE EASTERN NORTH DAKOTA/GRAND FORKS ND
500 PM CDT THU SEP 21 2017

 **SATELLITE DATA USED TO AUGMENT SKY COVER AT AUTOMATED STATIONS**
 *****  WEATHER ACROSS EASTERN NORTH DAKOTA  *****

CITY           SKY/WX    TMP DP  RH WIND       PRES   REMARKS
GRAND FORKS    FAIR      81  47  30 SE18      29.67F
GRAND FRKS AFB FAIR      80  45  29 S14       29.67F
DEVILS LAKE    CLOUDY    75  57  53 S7        29.65F
FARGO          FAIR      80  54  40 SE12G20   29.67F
WAHPETON ARPT  CLOUDY    79  61  53 SE12G18   29.69S
$$

 ***** WEATHER ACROSS CENTRAL AND WESTERN NORTH DAKOTA  *****

CITY           SKY/WX    TMP DP  RH WIND       PRES   REMARKS
BISMARCK       FAIR      79  52  38 NW10      29.65R
MINOT          FAIR      71  45  39 N10       29.70R
JAMESTOWN      FAIR      82  59  45 S16G24    29.63F
MINOT AFB      FAIR      68  44  42 N8        29.70R
GARRISON         N/A     72  45  37 NW16G26   29.69R
WILLISTON      FAIR      63  38  39 NW9       29.78R
DICKINSON      FAIR      69  42  37 NW13      29.72S
HETTINGER      FAIR      71  41  33 N16       29.73R
$$

 *****  OTHER AIRPORT OBSERVATIONS IN OUR AREA  *****

CITY           SKY/WX    TMP DP  RH WIND       PRES   REMARKS
WALHALLA       FAIR     N/A N/A N/A SE8G15    29.68S
GRAFTON AIRPOR FAIR      79  46  31 S18G24    29.68F
VALLEY CITY AR MOCLDY    81  57  44 S13G20    29.68S
CANDO          MOCLDY    70  52  52 N14       29.68S
CAVALIER APRT  FAIR      75  48  38 S14G21    29.67S
GWINNER        PTCLDY    79  61  53 SE12G18   29.66S
SHEYENNE NWR     N/A     79  59  50 S15       29.95S
ROLLA          CLOUDY    64  48  55 N12       29.71S
 ***** THE ABOVE OBSERVATIONS ARE NON NWS ARE NOT QUALITY
       CONTROLLED AND MAY MIS-REPORT RAIN FOR SNOW...
$$

  *****  WEATHER ACROSS NORTHERN MINNESOTA  *****

CITY           SKY/WX    TMP DP  RH WIND       PRES   REMARKS
FLAG ISLAND    FAIR      70  48  46 SE12      29.76F
WARROAD        FAIR      75  48  38 SE14G20   29.76F
ROSEAU         FAIR      77  48  36 SE18      29.74F
HALLOCK        CLOUDY    81  41  24 S15G26    29.67F
THF RVR FALLS  FAIR      78  46  32 SE17      29.73F
BAUDETTE       FAIR      75  48  38 SE16G22   29.79F
WASKISH        FAIR      73  50  43 SE13G18   29.78F
CROOKSTON      FAIR      79  46  31 S14       29.70F
$$
  *****  WEATHER ACROSS CENTRAL AND WEST MINNESOTA  *****

CITY           SKY/WX    TMP DP  RH WIND       PRES   REMARKS
FOSSTON        PTSUNNY   73  48  40 SE12      29.75S
BEMIDJI        FAIR      73  49  43 SE16      29.79F
PARK RAPIDS    PTSUNNY   75  53  46 SE10      29.78F
ELBOW LAKE     FAIR      78  65  64 E16       29.71F HAZE
WADENA         FAIR      75  57  53 SE14      29.76F
DETROIT LAKES  FAIR      75  52  43 SE13      29.75F
MOORHEAD       FAIR      81  55  41 S15G24    29.69S
FERGUS FALLS   PTSUNNY   79  63  57 SE16G22   29.70F
MORRIS MN      FAIR      81  66  61 SE18      29.70F
STAPLES        FAIR      77  57  50 SE10G16   29.78F
$$
  *****  WEATHER ELSEWHERE ACROSS MINNESOTA  *****

CITY           SKY/WX    TMP DP  RH WIND       PRES   REMARKS
DULUTH         FAIR      67  58  72 E17G23    29.90F
INTRNTL FALLS  FAIR      72  49  44 SE14G22   29.84F
ELY            FAIR      70  48  46 SE13      29.92F
CLOQUET        FAIR      66  55  68 E14       29.89F
WHEATON        FAIR      81  64  57 SE15      29.68F
BRAINERD       FAIR      75  57  53 SE12G21   29.80F
HIBBING        FAIR      71  51  49 SE15      29.87F
ALEXANDRIA     PTSUNNY   78  65  63 SE17      29.77F
SAINT CLOUD    FAIR      80  67  64 SE13G23   29.79F
MINNEAPOLIS    FAIR      83  69  62 SE16      29.80F
$$

  *****  WEATHER ACROSS SOUTH DAKOTA  *****

CITY           SKY/WX    TMP DP  RH WIND       PRES   REMARKS
SIOUX FALLS    FAIR      86  71  60 S17G28    29.68F HX  91
BROOKINGS      FAIR      84  68  58 S23G32    29.68F
WATERTOWN      FAIR      83  71  67 S17G25    29.67F
HURON          FAIR      84  68  58 S20       29.63F
SISSETON         N/A     81  67  62 SE14      29.66F
ABERDEEN       FAIR      86  64  47 S16G23    29.62F
MITCHELL       FAIR      88  65  46 S14G25    29.63F HX  90
PIERRE         FAIR      88  54  31 S15       29.58S
MOBRIDGE       FAIR      88  58  36 VRB7      29.59S
RAPID CITY     SUNNY     75  39  27 N18       29.69S
$$

  *****  SOME WEATHER IN NEARBY STATES *****

CITY           SKY/WX    TMP DP  RH WIND       PRES   REMARKS
GLASGOW MT     PTSUNNY   59  33  37 W13       29.83R
GREAT FALLS MT FAIR      54  28  36 NE6       29.85R
CHEYENNE WY    FAIR      82  17   9 SE15G22   29.77F
SCOTTSBLUFF NE FAIR      88  39  17 E20       29.64F
OMAHA NE       FAIR      93  71  48 S23G33    29.72F HX 100
DES MOINES IA  FAIR      89  71  55 S18G30    29.81F HX  95
DAVENPORT IA   FAIR      83  67  58 SE7       29.97F
CHICAGO IL     PTSUNNY   93  63  36 S10       29.97S HX  94
EAU CLAIRE WI  FAIR      81  68  64 SE9       29.88F
LA CROSSE WI   SUNNY     88  63  42 SE14      29.88F
$$

  *****  SOME NATIONAL WEATHER *****

CITY           SKY/WX    TMP DP  RH WIND       PRES   REMARKS
LA GUARDIA NY  CLOUDY    78  63  59 N10       29.99S
RALEIGH NC     PTSUNNY   77  68  73 CALM      30.01S
ATLANTA GA     TSTM      81  66  60 E15       30.00S
NEW ORLEANS LA FAIR      87  73  62 NE10      29.94F HX  94
OKLAHOMA CITY  PTSUNNY   91  71  51 SE22G28   29.84F HX  97
ALBUQUERQUE NM FAIR      85  32  15 S12G22    29.91F
SALT LAKE CITY CLOUDY    55  41  59 NW16      29.70F
LOS ANGELES CA FAIR      70  55  59 W18G28    29.83S
BOISE ID       PTSUNNY   56  34  43 NW8       29.80F
SEATTLE WA     PTSUNNY   59  48  67 CALM      29.95S
$$

*** WEATHER ACROSS MANITOBA...SASKATCHEWAN AND ONTARIO ***
                ***ONTARIO***

CITY           SKY/WX    TMP DP  RH WIND       PRES   REMARKS
GERALDTON      MOSUNNY   70  45  40 SE7       30.03F
THUNDER BAY    SUNNY     64  52  63 E14       30.01S
SIOUX LOOKOUT  NOT AVBL
TORONTO        MOSUNNY   79  59  50 SE7       30.10S
BIG TROUT LK   SUNNY     64  50  59 S12G18    29.84S
PICKLE LAKE    PTSUNNY   68  43  40 S10G18    29.94F
DRYDEN         CLOUDY    70  45  40 SE13G18   29.87F
KENORA         NOT AVBL
$$
                *** MANITOBA***

CITY           SKY/WX    TMP DP  RH WIND       PRES   REMARKS
BRANDON        PTSUNNY   59  54  82 E2        29.74R
DAUPHIN        CLOUDY    64  45  48 NW3       29.71R
ISLAND LAKE    CLOUDY    61  48  63 S12G18    29.73S
PILOT MOUND      N/A     64  50  59 N7          N/A
THE PAS        MOSUNNY   61  39  44 W14G21    29.66R
THOMPSON       PTSUNNY   61  45  55 NW6       29.60R
WINNIPEG       CLOUDY    72  52  49 N8        29.71F
LYNN LAKE      LGT RAIN  39  39 100 NW7       29.67R
CHURCHILL      LGT RAIN  48  46  93 NE17G23   29.64R
GILLAM         MOSUNNY   66  45  45 SW12G21   29.62R
$$
                ***SASKATCHEWAN***

CITY           SKY/WX    TMP DP  RH WIND       PRES   REMARKS
ESTEVAN        PTSUNNY   63  36  36 NW10      29.77R
KINDERSLEY     LGT RAIN  46  37  71 W10G17    29.80R
LLOYDMINSTER   LGT RAIN  43  39  87 N12G20    29.81R
PRINCE ALBERT  PTSUNNY   52  41  66 NW7       29.74R
REGINA         MOSUNNY   57  37  47 NW12G20   29.79R
YORKTON        SUNNY     63  34  34 W13       29.73R
N. BATTLEFORD  CLOUDY    48  37  66 NW13      29.79R
LA RONGE       DRIZZLE   46  41  81 NW10G18   29.73R
SASKATOON      PTSUNNY   50  39  66 SW16G23   29.77R
SWIFT CURRENT  CLOUDY    50  30  46 W15G21    29.82R
$$
NOTE: THESE ARE AUTOMATED STATIONS WITH LIMITED QUALITY CONTROL
      "FAIR" INDICATES FEW OR NO CLOUDS BELOW 12,000 FEET WITH NO
      SIGNIFICANT WEATHER AND/OR OBSTRUCTIONS TO VISIBILITY.
      SKY/WX - SKY CONDITION AND SIGNIFICANT WEATHER.
      TMP - AIR TEMPERATURE.    DP   - DEWPOINT TEMPERATURE.
      RH  - RELATIVE HUMIDITY.  PRES - PRESSURE.
      HX  - HEAT INDEX.         WCI  - WIND CHILL INDEX.
$




USA.gov is the U.S. government's official web portal to all federal, state and local government web resources and services.